www.pogodaiklimat.ru

Погода и климат >> Архив погоды >> КНДР >> Чунган


ПОГОДА в Чунгане

  • Прогноз погоды в Чунгане
  • Монитор погоды в Чунгане

АРХИВ ПОГОДЫ в Чунгане

Время (UTC), дата Ветер
(напр.,м/с)
 
Видим.   Явления Облачность Т
(С)
Тd
(С)
f
(%)
Тe
(С)
Тes
(С)
Комфортность P
(гПа)
Po
(гПа)
Тmin
(С)
Tmax
(С)
R
(мм)
R24
(мм)
S
(см)
06 17.02 штиль 0 15 км ясно +3.0 -13.9 28 +3 +9 1021.2 981.0
09 17.02 штиль 0 15 км ясно -0.4 -10.2 48 -1 -1 1021.6 981.0
12 17.02 штиль 0 15 км ясно -9.7 -15.5 63 -10 -10 1024.5 982.3 +4.0
15 17.02 штиль 0 15 км ясно -14.5 -17.2 80 -15 -15 1027.4 984.2
18 17.02 штиль 0 15 км ясно -17.1 -18.5 89 -17 -17 1029.2 985.6
21 17.02 штиль 0 15 км ясно -17.3 -17.9 95 -17 -17 1030.3 986.7
00 18.02 штиль 0 15 км ясно -18.3 -18.9 95 -18 -15 1031.2 987.4 -19.5 400
03 18.02 штиль 0 15 км 5/0
[Ci fib]
-3.4 -9.0 65 -4 +6 1027.4 986.1
06 18.02 штиль 0 15 км 5/0
[Ci fib]
+5.4 -6.7 41 +5 +11 1025.2 985.1
09 18.02 штиль 0 15 км 5/0
[Ci fib]
-0.7 -6.7 64 -1 -1 1024.3 983.4
12 18.02 штиль 0 15 км 10/10 600 м
[Sc]
-4.4 -8.7 72 -5 -5 1024.7 983.2 +7.5
15 18.02 штиль 0 15 км 10/10 600 м
[Sc]
-5.8 -8.4 82 -7 -7 1024.9 983.1
18 18.02 штиль 0 15 км 10/10 600 м
[Sc]
-6.0 -7.5 89 -7 -7 1024.1 982.3
21 18.02 штиль 0 15 км 10/10 600 м
[Sc]
-6.5 -8.1 88 -7 -7 1022.8 981.1
00 19.02 штиль 0 15 км 10/10 600 м
[Sc]
-5.0 -6.3 91 -6 -6 1020.9 979.5 -8.0 300
03 19.02 штиль 0 15 км 10/10 600 м
[Sc]
-0.6 -4.0 78 -2 -2 1019.8 979.0
06 19.02 штиль 0 15 км 10/10 600 м
[Sc]
+2.8 -2.6 68 +2 +2 1017.0 977.0
09 19.02 штиль 0 10 км слаб. снег 10/0 600 м
[As op]
+0.4 -3.2 77 -1 -1 1016.9 976.5 0.0
12 19.02 штиль 0 10 км в посл. час снег 10/10 600 м
[Sc]
-1.8 -3.0 91 -3 -3 1018.5 977.5 +5.5 0.0
15 19.02 штиль 0 15 км 10/10 600 м
[Sc]
-2.2 -2.5 98 -4 -4 1020.6 979.6
18 19.02 штиль 0 15 км 10/10 600 м
[Sc]
-2.8 -3.5 95 -4 -4 1021.1 980.0
21 19.02 штиль 0 15 км 10/10 600 м
[Sc]
-4.5 -5.1 96 -6 -6 1021.4 980.0
00 20.02 штиль 0 15 км 10/10 600 м
[Sc]
-3.8 -5.0 91 -5 -5 1023.6 982.3 -5.2 300
03 20.02 штиль 0 15 км 10/10 600 м
[Sc]
+1.0 -0.4 90 -0 -0 1024.0 983.3
06 20.02 ЮЗ 2 15 км 10/10 600 м
[Sc]
+2.8 -4.1 60 0 0 1024.0 983.7
09 20.02 штиль 0 15 км 10/10 600 м
[Sc]
+1.0 -2.5 77 0 0 1024.8 984.1
12 20.02 штиль 0 15 км 10/10 600 м
[Sc]
-3.2 -6.4 79 -4 -4 1027.7 986.4 +4.0
15 20.02 штиль 0 15 км ясно -8.5 -10.8 83 -9 -9 1029.7 987.4
18 20.02 штиль 0 15 км ясно -12.1 -14.1 85 -12 -12 1031.0 988.2
21 20.02 штиль 0 15 км ясно -13.5 -14.8 90 -14 -14 1031.6 988.7
00 21.02 штиль 0 15 км 10/10 600 м
[Sc]
-10.1 -10.7 95 -11 -11 1032.3 989.6 -14.1 200
03 21.02 штиль 0 15 км ясно -1.1 -6.1 69 -2 +9 1029.2 988.1
06 21.02 штиль 0 15 км ясно +3.2 -6.7 48 +3 +10 1026.4 986.0
09 21.02 штиль 0 15 км ясно +5.0 -5.6 46 +5 +5 1025.2 985.1
12 21.02 штиль 0 15 км ясно -6.9 -11.1 72 -8 -8 1027.0 985.1 +5.4
15 21.02 штиль 0 15 км ясно -9.5 -12.5 79 -10 -10 1027.9 985.5
18 21.02 штиль 0 15 км ясно -11.3 -11.6 98 -12 -12 1028.6 986.0
21 21.02 штиль 0 15 км ясно -14.1 -14.6 96 -14 -14 1029.1 986.0
00 22.02 штиль 0 15 км ясно -14.1 -14.7 95 -14 -11 1029.6 986.5 -15.1 200
03 22.02 штиль 0 20 км ясно +1.6 -3.9 67 +1 +12 опасность
простуды
1026.8 986.2
06 22.02 штиль 0 20 км 5/0
[Ci fib]
+8.9 -3.0 43 +9 +15 1023.5 983.9
09 22.02 штиль 0 20 км ясно +4.9 -6.2 44 +5 +5 1022.7 982.6
12 22.02 штиль 0 20 км ясно -3.8 -9.1 67 -5 -5 1025.3 983.8 +11.0
15 22.02 штиль 0 20 км 8/0
[Ci fib]
-7.9 -10.6 81 -9 -9 1027.9 985.8
18 22.02 штиль 0 20 км 5/0
[Ci fib]
-10.3 -11.6 90 -11 -11 1028.9 986.5
21 22.02 штиль 0 20 км 5/0
[Ci fib]
-12.7 -13.3 95 -13 -13 1030.0 986.8
00 23.02 штиль 0 20 км ясно -11.9 -12.5 95 -12 -9 1028.7 985.9 -13.7 200
03 23.02 штиль 0 20 км ясно +2.4 -2.9 68 +2 +13 опасность
простуды
1028.1 987.5
06 23.02 штиль 0 20 км ясно +10.1 -1.2 45 +10 +17 1024.7 985.3
09 23.02 штиль 0 20 км ясно +7.7 -5.4 39 +8 +8 1022.3 982.8
12 23.02 штиль 0 15 км ясно -2.2 -7.3 68 -3 -3 1024.9 983.8 +12.5
15 23.02 штиль 0 15 км ясно -5.4 -7.5 85 -6 -6 1025.6 984.0
18 23.02 штиль 0 15 км ясно -8.7 -9.8 92 -9 -9 1026.5 984.2
21 23.02 штиль 0 15 км ясно -10.3 -10.9 95 -11 -11 1025.5 983.1

 

Местоположение метеостанции Чунган (КНДР): широта 41.78 долгота 126.88 высота над уровнем моря 331 м.

В архиве по умолчанию представлена погода в Чунгане за последнюю неделю. Архивные данные за месяц целиком и за предыдущие месяцы, начиная с января 2011 года, Вы можете получить, выбрав интересующий диапазон дат из раскрывающегося списка и нажав кнопку "Ввод!".


*Определитесь, кто Вы:
робот инопланетянин человек

Внимание! Время в таблицах - всемирное. Для получения местного времени необходимо прибавить поправку, которая равна 9 ч.

Смотрите также архив погоды в соседних городах и на ближайших метеорологических станциях:

Погода в Линьцзяне (Гирин, Китай) (7 км)
Погода в Канге (КНДР) (93 км)
Погода в Цзиане (Цзяньси, Китай) (97 км)
Погода в Хесене (КНДР) (115 км)
Погода в Чанбае (Гирин, Китай) (117 км)
Погода в Самджиёне (КНДР) (118 км)
Погода в Хуадяне (Гирин, Китай) (134 км)
Погода в Пунгсане (КНДР) (151 км)
Погода в Джангджине (КНДР) (160 км)
Погода в Цинъюане (Гуандун, Китай) (164 км)

Пояснения к столбцам:

Ветер - указаны скорость ветра в м/с - средняя за 10 мин, порывы в срок и между сроками (в фигурных скобках) и направление, откуда дует ветер: С - северный, СВ - северо-восточный, В - восточный, ЮВ - юго-восточный, Ю - южный, ЮЗ - юго-западный, З - западный, СЗ - северо-западный.
Видимость - горизонтальная дальность видимости в метрах или километрах. При видимости от 1 до 10 км при отсутствии осадков обычно наблюдается дымка, при ухудшении видимости до 1 км и менее - туман. В сухую погоду видимость может ухудшаться дымом, пылью или мглою.
Явления - указаны атмосферные явления, наблюдавшиеся в срок или в последний час перед сроком; фигурными скобками обозначены явления, наблюдавшиеся между сроками (за 1-3 часа до срока); квадратными скобками обозначены град или гололедные отложения с указанием их диаметра в мм.
Облачность - указаны через наклонную черту общая и нижняя облачность в баллах и высота нижней границы облаков в метрах; квадратными скобками обозначены формы облаков: Ci - перистые, Cs - перисто-слоистые, Cc - перисто-кучевые, Ac - высококучевые, As - высокослоистые, Sc - слоисто-кучевые, Ns - слоисто-дождевые, Cu - кучевые, Cb - кучево-дождевые. Подробнее классификацию облаков см. в Атласе облаков (PDF).
T - Температура воздуха - температура, измеренная на высоте 2 м над землей.
Td - Температура точки росы - температура, при понижении до которой содержащийся в воздухе водяной пар достигнет насыщения.
f - Относительная влажность воздуха - влажноcть воздуха, измеренная на высоте 2 м над землей.
Te - Эффективная температура - температура, которую ощущает одетый по сезону человек в тени. Характеристика душности погоды. При расчете учитывается влияние влажности воздуха и скорости ветра на теплоощущения человека.
Tes - Эффективная температура на солнце - температура, которую ощущает человек, с поправкой на солнечный нагрев. Характеристика знойности погоды. Зависит от высоты солнца над горизонтом, облачности и скорости ветра. Ночью, в пасмурную погоду, а также при ветре 12 м/с и более поправка равна нулю.
P - Атмосферное давление - приведенное к уровню моря атмосферное давление.
Po - Атмосферное давление - измеренное на уровне метеостанции атмосферное давление.
Tmin - Минимальная температура - минимум температуры воздуха на высоте 2 м над землей.
Tmax - Максимальная температура - максимум температуры воздуха на высоте 2 м над землей.
R - Количество осадков - Количество выпавших осадков за период времени, мм. При наведении курсора мыши на число - период времени, за который выпало указанное количество осадков.
R24 - Количество осадков - Количество выпавших осадков за 24 часа, мм.
S - Снежный покров - Высота снежного покрова, см. При наведении курсора мыши на число - состояние снежного покрова и степень покрытия местности в баллах.